Location: Burla
(50.9568°N, 10.4983°E)
Time: 09:17:37
(UTC+00:00)

CZ-4C R/B - Pass Details

Date: 18 January 2026
Orbit: 482 x 1496 km, 63.4° (Epoch: 16 February)

Event Time Altitude Azimuth Distance (km) Brightness Sun altitude
Exits shadow 05:59:58 10° 318° (NW) 2,715 4.3 -11.0°
Reaches altitude 10° 06:00:03 10° 318° (NW) 2,686 4.3 -11.0°
Maximum altitude 06:06:26 57° 37° (NE) 1,329 3.3 -10.1°
Drops below altitude 10° 06:14:31 10° 115° (ESE) 3,387 7.0 -8.9°
Sets 06:17:45 0° 120° (ESE) 4,464 8.2 -8.4°
